User: anonymous   Login
Location: Caltech
(34.1382°N, 118.1253°W)
Time: 15:25:25
(UTC-08:00)
Language:

Meteor 2-4 Rocket - Orbit

View from above orbital plane
View from above orbital plane
View from above satellite
View from above satellite

Ground track
Ground track

The orbit data is extracted from the following two-line orbital elements,

1 11289U 79021B   15059.09489067  .00000210  00000-0  10571-3 0  9993
2 11289 081.2441 263.7019 0077019 097.3007 263.6927 14.11487524852323
Epoch (UTC): 28 February 2015 02:16:38
Eccentricity: 0.0077019
inclination: 81.2441°
perigee height: 798 km
apogee height: 910 km
right ascension of ascending node: 263.7019°
argument of perigee: 97.3007°
revolutions per day: 14.11487524
mean anomaly at epoch: 263.6927°
orbit number at epoch: 85232

The dashed part of the orbit path shows where the satellite is in the earth's shadow,  

DLR